Weather History for KIML - February, 2013

Change the Weather History Date:

Friday, February 8, 2013

  Actual Average Record
Temperature  
Mean Temperature 39 °F 30 °F  
Max Temperature 57 °F 43 °F 75 °F (1954)
Min Temperature 20 °F 17 °F -25 °F (1933)
Degree Days  
Heating Degree Days 26 35  
Month to date heating degree days 200 284  
Cooling Degree Days 0 0  
Month to date cooling degree days 0 0  
Year to date cooling degree days 0 0  
Moisture  
Dew Point 21 °F    
Average Humidity 52    
Maximum Humidity 74    
Minimum Humidity 29    
Precipitation  
Precipitation 0.00 in 0.01 in 0.16 in (1950)
Sea Level Pressure  
Sea Level Pressure 29.97 in    
Wind  
Wind Speed 16 mph (South)    
Max Wind Speed 32 mph    
Max Gust Speed 38 mph    
Visibility 10 miles    
Events      
T = Trace of Precipitation, MM = Missing Value Source: NWS Daily Summary

Daily Weather History Graph

Daily Weather History Graph

Search for Another Location

Airport or City:

Trip Planner

Search our weather history database for the weather conditions in past years. The results will help you decide how hot, cold, wet, or windy it might be!

Date:

Astronomy

Feb. 08, 2013 Rise Set
Actual Time 6:48 AM MST 5:13 PM MST
Civil Twilight 6:19 AM MST 5:41 PM MST
Nautical Twilight 5:47 AM MST 6:14 PM MST
Astronomical Twilight 5:15 AM MST 6:46 PM MST
Moon 5:18 AM MST (2/8) 3:49 PM MST (2/8)
Length of Visible Light 11h 22m
Length of Day
10h 25m
Waning Crescent, 3% of the Moon is Illuminated
Feb 8
Waning Crescent
Feb 10
New
Feb 17
First Quarter
Feb 25
Full
Mar 4
Last Quarter

Hourly Weather History & Observations

Time (MST) Temp. Windchill Dew Point Humidity Pressure Visibility Wind Dir Wind Speed Gust Speed Precip Events Conditions
12:53 AM 26.1 °F 19.4 °F 16.0 °F 66% 30.16 in 10.0 mi South 5.8 mph - N/A   Clear
1:53 AM 24.1 °F - 14.0 °F 65% 30.17 in 10.0 mi Calm Calm - N/A   Clear
2:53 AM 23.0 °F 17.0 °F 15.1 °F 72% 30.15 in 10.0 mi South 4.6 mph - N/A   Clear
3:53 AM 23.0 °F 13.9 °F 15.1 °F 72% 30.13 in 10.0 mi SSE 8.1 mph - N/A   Clear
4:53 AM 30.0 °F 21.7 °F 19.0 °F 64% 30.10 in 10.0 mi South 9.2 mph - N/A   Clear
5:53 AM 30.9 °F - 19.0 °F 61% 30.11 in 10.0 mi North - - N/A   Clear
6:53 AM 28.9 °F 20.4 °F 18.0 °F 64% 30.12 in 10.0 mi South 9.2 mph - N/A   Clear
7:53 AM 33.1 °F 23.0 °F 19.9 °F 59% 30.12 in 10.0 mi South 15.0 mph - N/A   Clear
8:53 AM 39.0 °F 29.6 °F 23.0 °F 53% 30.08 in 10.0 mi South 18.4 mph 25.3 mph N/A   Clear
9:53 AM 46.9 °F - 24.1 °F 41% 30.05 in 10.0 mi South 21.9 mph 29.9 mph N/A   Clear
10:53 AM 50.0 °F - 24.1 °F 36% 30.03 in 10.0 mi South 17.3 mph - N/A   Clear
11:53 AM 53.1 °F - 23.0 °F 31% 29.99 in 10.0 mi South 20.7 mph 28.8 mph N/A   Clear
12:53 PM 55.0 °F - 24.1 °F 30% 29.94 in 10.0 mi South 20.7 mph 31.1 mph N/A   Clear
1:53 PM 54.0 °F - 23.0 °F 30% 29.91 in 9.0 mi South 24.2 mph 33.4 mph N/A   Clear
2:53 PM 55.0 °F - 24.1 °F 30% 29.88 in 8.0 mi South 26.5 mph 34.5 mph N/A   Clear
3:53 PM 55.0 °F - 24.1 °F 30% 29.86 in 6.0 mi South 26.5 mph 38.0 mph N/A   Haze
4:53 PM 52.0 °F - 24.1 °F 34% 29.85 in 10.0 mi South 21.9 mph 29.9 mph N/A   Scattered Clouds
5:53 PM 48.0 °F - 24.1 °F 39% 29.86 in 10.0 mi South 23.0 mph 31.1 mph N/A   Clear
6:53 PM 44.1 °F 36.2 °F 21.9 °F 42% 29.87 in 10.0 mi SSE 18.4 mph 26.5 mph N/A   Clear
7:53 PM 41.0 °F 32.8 °F 21.9 °F 47% 29.86 in 10.0 mi SSE 16.1 mph - N/A   Clear
8:53 PM 37.9 °F 28.9 °F 21.0 °F 51% 29.83 in 10.0 mi SSE 16.1 mph - N/A   Clear
9:53 PM 39.9 °F 32.5 °F 19.9 °F 45% 29.80 in 10.0 mi South 12.7 mph - N/A   Clear
10:53 PM 39.9 °F 31.8 °F 19.0 °F 43% 29.78 in 10.0 mi South 15.0 mph - N/A   Clear
11:53 PM 39.9 °F 30.0 °F 19.0 °F 43% 29.75 in 10.0 mi South 21.9 mph 29.9 mph N/A   Clear